| time (UTC) | temp F | wind direction | speed MPH | gust MPH | rain 1hr in | rain 24hr in | rain mn in | humidity % | barometer mb |
| 20260503001728 | 71 | 222 | 1.0 | 8.0 | 0.00 | 0.00 | 0.00 | 67 | 1010.0 |
| 20260503001712 | 71 | 238 | 1.0 | 8.0 | 0.00 | 0.00 | 0.00 | 67 | 1010.0 |
| 20260503000721 | 71 | 244 | 1.0 | 8.0 | 0.00 | 0.00 | 0.00 | 67 | 1010.1 |
| 20260503000442 | 71 | 246 | 2.0 | 8.0 | 0.00 | 0.00 | 0.00 | 67 | 1009.9 |
| 20260502235718 | 71 | 261 | 1.0 | 7.0 | 0.00 | 0.00 | 0.00 | 66 | 1009.9 |
| 20260502235446 | 71 | 290 | 1.0 | 4.0 | 0.00 | 0.00 | 0.00 | 66 | 1009.8 |
| 20260502234718 | 71 | 255 | 0.0 | 6.0 | 0.00 | 0.00 | 0.00 | 66 | 1009.8 |
| 20260502234219 | 71 | 290 | 0.0 | 6.0 | 0.00 | 0.00 | 0.00 | 66 | 1009.9 |
| 20260502234202 | 71 | 19 | 1.0 | 6.0 | 0.00 | 0.00 | 0.00 | 66 | 1010.0 |
| 20260502233217 | 71 | 194 | 1.0 | 6.0 | 0.00 | 0.00 | 0.00 | 66 | 1009.9 |
| 20260502232713 | 72 | 167 | 0.0 | 6.0 | 0.00 | 0.00 | 0.00 | 65 | 1010.1 |
| 20260502232214 | 72 | 188 | 0.0 | 6.0 | 0.00 | 0.00 | 0.00 | 65 | 1010.0 |
| 20260502231714 | 72 | 203 | 1.0 | 6.0 | 0.00 | 0.00 | 0.00 | 65 | 1010.0 |
| 20260502231214 | 72 | 113 | 1.0 | 6.0 | 0.00 | 0.00 | 0.00 | 65 | 1009.8 |
| 20260502230715 | 72 | 175 | 0.0 | 5.0 | 0.00 | 0.00 | 0.00 | 65 | 1010.0 |
| 20260502230215 | 72 | 126 | 2.0 | 8.0 | 0.00 | 0.00 | 0.00 | 65 | 1010.0 |
| 20260502225717 | 71 | 257 | 2.0 | 8.0 | 0.00 | 0.00 | 0.00 | 65 | 1010.1 |
| 20260502225212 | 72 | 230 | 2.0 | 9.0 | 0.00 | 0.00 | 0.00 | 65 | 1010.1 |
| 20260502224933 | 72 | 241 | 2.0 | 10.0 | 0.00 | 0.00 | 0.00 | 64 | 1010.2 |
| 20260502224211 | 72 | 264 | 2.0 | 10.0 | 0.00 | 0.00 | 0.00 | 65 | 1010.3 |
| 20260502223709 | 72 | 210 | 3.0 | 10.0 | 0.00 | 0.00 | 0.00 | 66 | 1010.5 |
| 20260502223208 | 72 | 221 | 4.0 | 10.0 | 0.00 | 0.00 | 0.00 | 66 | 1010.5 |
| 20260502222705 | 72 | 225 | 4.0 | 11.0 | 0.00 | 0.00 | 0.00 | 65 | 1010.6 |
| 20260502222438 | 72 | 254 | 3.0 | 11.0 | 0.00 | 0.00 | 0.00 | 65 | 1010.6 |
| 20260502221704 | 72 | 219 | 3.0 | 11.0 | 0.00 | 0.00 | 0.00 | 65 | 1010.6 |
| 20260502221204 | 72 | 243 | 4.0 | 11.0 | 0.00 | 0.00 | 0.00 | 66 | 1010.8 |
| 20260502220928 | 72 | 277 | 5.0 | 11.0 | 0.00 | 0.00 | 0.00 | 65 | 1010.8 |
| 20260502220202 | 72 | 289 | 3.0 | 11.0 | 0.00 | 0.00 | 0.00 | 65 | 1010.8 |
| 20260502215702 | 73 | 248 | 3.0 | 12.0 | 0.00 | 0.00 | 0.00 | 64 | 1011.0 |
| 20260502215201 | 73 | 240 | 3.0 | 12.0 | 0.00 | 0.00 | 0.00 | 65 | 1011.0 |
| 20260502214657 | 73 | 254 | 4.0 | 12.0 | 0.00 | 0.00 | 0.00 | 65 | 1011.1 |
| 20260502214155 | 72 | 223 | 5.0 | 12.0 | 0.00 | 0.00 | 0.00 | 65 | 1011.1 |
| 20260502213918 | 73 | 236 | 4.0 | 11.0 | 0.00 | 0.00 | 0.00 | 64 | 1011.4 |
| 20260502213154 | 73 | 268 | 3.0 | 10.0 | 0.00 | 0.00 | 0.00 | 64 | 1011.4 |
| 20260502212648 | 74 | 264 | 3.0 | 10.0 | 0.00 | 0.00 | 0.00 | 64 | 1011.5 |
| 20260502212407 | 73 | 256 | 3.0 | 11.0 | 0.00 | 0.00 | 0.00 | 64 | 1011.4 |
| 20260502211641 | 74 | 252 | 3.0 | 11.0 | 0.00 | 0.00 | 0.00 | 63 | 1011.3 |
| 20260502211140 | 74 | 240 | 1.0 | 10.0 | 0.00 | 0.00 | 0.00 | 63 | 1011.4 |
| 20260502210641 | 74 | 244 | 2.0 | 10.0 | 0.00 | 0.00 | 0.00 | 63 | 1011.3 |
| 20260502210405 | 74 | 256 | 3.0 | 10.0 | 0.00 | 0.00 | 0.00 | 63 | 1011.4 |
| 20260502205636 | 74 | 260 | 2.0 | 9.0 | 0.00 | 0.00 | 0.00 | 61 | 1011.5 |
| 20260502205137 | 74 | 238 | 2.0 | 8.0 | 0.00 | 0.00 | 0.00 | 60 | 1011.4 |
| 20260502204855 | 74 | 259 | 1.0 | 8.0 | 0.00 | 0.00 | 0.00 | 62 | 1011.5 |
| 20260502204131 | 73 | 242 | 0.0 | 4.0 | 0.00 | 0.00 | 0.00 | 61 | 1011.6 |
| 20260502203631 | 73 | 309 | 0.0 | 3.0 | 0.00 | 0.00 | 0.00 | 61 | 1011.5 |
| 20260502203131 | 73 | 326 | 1.0 | 4.0 | 0.00 | 0.00 | 0.00 | 62 | 1011.4 |
| 20260502202628 | 73 | 271 | 0.0 | 4.0 | 0.00 | 0.00 | 0.00 | 62 | 1011.4 |
| 20260502202129 | 72 | 318 | 0.0 | 4.0 | 0.00 | 0.00 | 0.00 | 64 | 1011.7 |
| 20260502201629 | 72 | 245 | 1.0 | 8.0 | 0.00 | 0.00 | 0.00 | 63 | 1011.9 |
| 20260502201127 | 72 | 279 | 2.0 | 8.0 | 0.00 | 0.00 | 0.00 | 62 | 1012.0 |
| 20260502200623 | 72 | 169 | 2.0 | 8.0 | 0.00 | 0.00 | 0.00 | 63 | 1012.1 |
| 20260502200119 | 73 | 204 | 1.0 | 8.0 | 0.00 | 0.00 | 0.00 | 64 | 1012.1 |
| 20260502195623 | 73 | 265 | 1.0 | 8.0 | 0.00 | 0.00 | 0.00 | 65 | 1012.0 |
| 20260502195116 | 72 | 306 | 1.0 | 8.0 | 0.00 | 0.00 | 0.00 | 66 | 1012.1 |
| 20260502194609 | 72 | 251 | 1.0 | 6.0 | 0.00 | 0.00 | 0.00 | 66 | 1012.2 |
| 20260502194104 | 71 | 250 | 1.0 | 9.0 | 0.00 | 0.00 | 0.00 | 66 | 1012.2 |
| 20260502193557 | 72 | 276 | 1.0 | 9.0 | 0.00 | 0.00 | 0.00 | 65 | 1012.3 |
| 20260502193052 | 72 | 229 | 2.0 | 9.0 | 0.00 | 0.00 | 0.00 | 66 | 1012.4 |
| 20260502192545 | 72 | 254 | 1.0 | 9.0 | 0.00 | 0.00 | 0.00 | 66 | 1012.5 |
| 20260502192040 | 71 | 238 | 0.0 | 5.0 | 0.00 | 0.00 | 0.00 | 68 | 1012.5 |
| 20260502191534 | 71 | 215 | 0.0 | 4.0 | 0.00 | 0.00 | 0.00 | 69 | 1012.7 |
| 20260502191028 | 70 | 117 | 0.0 | 4.0 | 0.00 | 0.00 | 0.00 | 70 | 1012.8 |
| 20260502190739 | 70 | 193 | 0.0 | 7.0 | 0.00 | 0.00 | 0.00 | 71 | 1012.7 |
| 20260502190015 | 69 | 232 | 0.0 | 7.0 | 0.00 | 0.00 | 0.00 | 72 | 1012.7 |
| 20260502185510 | 69 | 247 | 1.0 | 7.0 | 0.00 | 0.00 | 0.00 | 73 | 1012.8 |
| 20260502185004 | 68 | 208 | 1.0 | 7.0 | 0.00 | 0.00 | 0.00 | 75 | 1012.8 |
| 20260502184458 | 67 | 196 | 0.0 | 6.0 | 0.00 | 0.00 | 0.00 | 76 | 1012.9 |
| 20260502183952 | 67 | 190 | 1.0 | 6.0 | 0.00 | 0.00 | 0.00 | 77 | 1012.9 |
| 20260502183720 | 66 | 136 | 1.0 | 6.0 | 0.00 | 0.00 | 0.00 | 79 | 1012.9 |
| 20260502183208 | 65 | 242 | 0.0 | 4.0 | 0.00 | 0.00 | 0.00 | 81 | 1013.0 |
| 20260502182434 | 64 | 261 | 1.0 | 4.0 | 0.00 | 0.00 | 0.00 | 83 | 1013.1 |
| 20260502181927 | 63 | 256 | 0.0 | 6.0 | 0.00 | 0.00 | 0.00 | 85 | 1013.0 |
| 20260502181421 | 62 | 175 | 0.0 | 6.0 | 0.00 | 0.00 | 0.00 | 87 | 1013.1 |
| 20260502180916 | 61 | 275 | 1.0 | 6.0 | 0.00 | 0.00 | 0.00 | 87 | 1013.1 |
| 20260502180410 | 61 | 11 | 0.0 | 6.0 | 0.00 | 0.00 | 0.00 | 89 | 1013.1 |
| 20260502180124 | 60 | 52 | 0.0 | 5.0 | 0.00 | 0.00 | 0.00 | 89 | 1013.2 |
| 20260502170312 | 57 | 34 | 0.0 | 0.0 | 0.00 | 0.00 | 0.00 | 96 | 1013.7 |
| 20260502164256 | 0 | 0.0 | 0.0 | 0.00 | 0.00 | 0.00 | 1013.7 | ||
| 20260502160648 | 56 | 5 | 0.0 | 0.0 | 0.00 | 0.00 | 0.00 | 96 | 1013.8 |
| 20260502160630 | 56 | 5 | 0.0 | 0.0 | 0.00 | 0.00 | 0.00 | 96 | 1013.8 |
| 20260502152054 | 56 | 252 | 0.0 | 0.0 | 0.00 | 0.00 | 0.00 | 96 | 1013.8 |
| 20260502151550 | 56 | 252 | 0.0 | 3.0 | 0.00 | 0.00 | 0.00 | 96 | 1013.8 |
| 20260502151042 | 56 | 252 | 0.0 | 3.0 | 0.00 | 0.00 | 0.00 | 96 | 1013.7 |
| 20260502150536 | 56 | 252 | 0.0 | 3.0 | 0.00 | 0.00 | 0.00 | 96 | 1013.7 |
| 20260502130312 | 56 | 239 | 0.0 | 4.0 | 0.00 | 0.00 | 0.00 | 96 | 1012.9 |
| 20260502123742 | 56 | 246 | 0.0 | 0.0 | 0.00 | 0.00 | 0.00 | 96 | 1012.7 |
| 20260502123507 | 56 | 246 | 0.0 | 0.0 | 0.00 | 0.00 | 0.00 | 96 | 1012.6 |
| 20260502122730 | 56 | 246 | 0.0 | 0.0 | 0.00 | 0.00 | 0.00 | 96 | 1012.5 |
| 20260502122225 | 56 | 246 | 0.0 | 0.0 | 0.00 | 0.00 | 0.00 | 96 | 1012.5 |
| 20260502121718 | 56 | 246 | 0.0 | 0.0 | 0.00 | 0.00 | 0.00 | 96 | 1012.4 |
| 20260502121431 | 56 | 246 | 0.0 | 0.0 | 0.00 | 0.00 | 0.00 | 96 | 1012.5 |
| 20260502120706 | 56 | 246 | 0.0 | 0.0 | 0.00 | 0.00 | 0.00 | 96 | 1012.5 |
| 20260502120201 | 56 | 246 | 0.0 | 0.0 | 0.00 | 0.00 | 0.00 | 96 | 1012.5 |
| 20260502115918 | 56 | 246 | 0.0 | 0.0 | 0.00 | 0.00 | 0.00 | 96 | 1012.5 |
| 20260502115148 | 56 | 246 | 0.0 | 0.0 | 0.00 | 0.00 | 0.00 | 96 | 1012.6 |
| 20260502114903 | 56 | 246 | 0.0 | 0.0 | 0.00 | 0.00 | 0.00 | 96 | 1012.4 |
| 20260502114142 | 56 | 246 | 0.0 | 0.0 | 0.00 | 0.00 | 0.00 | 96 | 1012.5 |
| 20260502113914 | 56 | 246 | 0.0 | 0.0 | 0.00 | 0.00 | 0.00 | 96 | 1012.5 |
| 20260502113402 | 56 | 246 | 0.0 | 0.0 | 0.00 | 0.00 | 0.00 | 96 | 1012.5 |
| 20260502112639 | 56 | 246 | 0.0 | 0.0 | 0.00 | 0.00 | 0.00 | 96 | 1012.5 |
| 20260502112359 | 56 | 246 | 0.0 | 0.0 | 0.00 | 0.00 | 0.00 | 96 | 1012.4 |
| 20260502111633 | 56 | 241 | 0.0 | 0.0 | 0.00 | 0.00 | 0.00 | 96 | 1012.4 |
| 20260502111130 | 55 | 181 | 0.0 | 0.0 | 0.00 | 0.00 | 0.00 | 96 | 1012.4 |
| 20260502110631 | 56 | 173 | 0.0 | 0.0 | 0.00 | 0.00 | 0.00 | 96 | 1012.3 |
| 20260502110128 | 56 | 181 | 0.0 | 0.0 | 0.00 | 0.00 | 0.00 | 96 | 1012.3 |
| 20260502105626 | 56 | 187 | 0.0 | 0.0 | 0.00 | 0.00 | 0.00 | 96 | 1012.3 |
| 20260502105125 | 56 | 241 | 0.0 | 0.0 | 0.00 | 0.00 | 0.00 | 96 | 1012.2 |
| 20260502104622 | 55 | 241 | 0.0 | 1.0 | 0.00 | 0.00 | 0.00 | 96 | 1012.2 |
| 20260502104123 | 55 | 241 | 0.0 | 1.0 | 0.00 | 0.00 | 0.00 | 96 | 1012.2 |
| 20260502103621 | 55 | 182 | 0.0 | 1.0 | 0.00 | 0.00 | 0.00 | 96 | 1012.2 |
| 20260502103123 | 55 | 202 | 0.0 | 1.0 | 0.00 | 0.00 | 0.00 | 96 | 1012.2 |
| 20260502102623 | 55 | 236 | 0.0 | 0.0 | 0.00 | 0.00 | 0.00 | 96 | 1012.2 |
| 20260502102122 | 55 | 236 | 0.0 | 1.0 | 0.00 | 0.00 | 0.00 | 96 | 1012.1 |
| 20260502101623 | 55 | 234 | 0.0 | 1.0 | 0.00 | 0.00 | 0.00 | 96 | 1012.1 |
| 20260502101122 | 55 | 247 | 0.0 | 1.0 | 0.00 | 0.00 | 0.00 | 96 | 1012.1 |
| 20260502100620 | 55 | 226 | 0.0 | 1.0 | 0.00 | 0.00 | 0.00 | 96 | 1012.1 |
| 20260502100116 | 55 | 200 | 0.0 | 0.0 | 0.00 | 0.00 | 0.00 | 96 | 1012.0 |
| 20260502091302 | 55 | 88 | 0.0 | 0.0 | 0.00 | 0.00 | 0.00 | 95 | 1012.0 |
| 20260502090538 | 55 | 90 | 0.0 | 0.0 | 0.00 | 0.00 | 0.00 | 95 | 1012.1 |
| 20260502090258 | 55 | 76 | 0.0 | 0.0 | 0.00 | 0.00 | 0.00 | 95 | 1012.2 |
| 20260502071027 | 56 | 103 | 0.0 | 0.0 | 0.00 | 0.00 | 0.00 | 94 | 1013.0 |
| 20260502070526 | 56 | 103 | 0.0 | 0.0 | 0.00 | 0.00 | 0.00 | 94 | 1012.9 |
| 20260502070028 | 56 | 103 | 0.0 | 0.0 | 0.00 | 0.00 | 0.00 | 94 | 1012.9 |
| 20260502065525 | 56 | 0.0 | 0.0 | 0.00 | 0.00 | 0.00 | 94 | 1012.9 | |
| 20260502065013 | 0 | 0.0 | 0.0 | 0.00 | 0.00 | 0.00 | 1013.0 |